TimeCDT,TemperatureF,Dew PointF,Humidity,Sea Level PressureIn,VisibilityMPH,Wind Direction,Wind SpeedMPH,Gust SpeedMPH,PrecipitationIn,Events,Conditions,WindDirDegrees,DateUTC
12:15 AM,45.7,36.5,70,30.30,10.0,SSE,8.1,-,N/A,,Clear,150,2013-04-26 05:15:00
12:35 AM,46.0,36.5,69,30.30,10.0,SSE,8.1,-,N/A,,Clear,150,2013-04-26 05:35:00
12:55 AM,46.0,36.1,68,30.30,10.0,SE,8.1,-,N/A,,Clear,140,2013-04-26 05:55:00
1:15 AM,45.5,36.5,71,30.30,10.0,SSE,8.1,-,N/A,,Clear,150,2013-04-26 06:15:00
1:35 AM,45.7,36.5,70,30.30,10.0,SSE,8.1,-,N/A,,Clear,150,2013-04-26 06:35:00
1:55 AM,45.7,36.7,71,30.29,10.0,SSE,9.2,-,N/A,,Clear,150,2013-04-26 06:55:00
2:15 AM,46.4,36.5,68,30.29,10.0,SSE,10.4,-,N/A,,Clear,150,2013-04-26 07:15:00
2:35 AM,46.4,36.5,68,30.28,10.0,SE,10.4,-,N/A,,Clear,140,2013-04-26 07:35:00
2:55 AM,46.8,36.3,67,30.28,10.0,SSE,9.2,-,N/A,,Clear,150,2013-04-26 07:55:00
3:15 AM,45.7,36.5,70,30.28,10.0,SE,8.1,-,N/A,,Clear,140,2013-04-26 08:15:00
3:35 AM,45.0,36.7,73,30.28,10.0,SSE,8.1,-,N/A,,Clear,150,2013-04-26 08:35:00
3:55 AM,45.3,36.5,71,30.28,10.0,SE,8.1,-,N/A,,Clear,140,2013-04-26 08:55:00
4:15 AM,44.8,36.9,74,30.29,10.0,SSE,6.9,-,N/A,,Clear,150,2013-04-26 09:15:00
4:35 AM,44.6,37.6,76,30.28,10.0,SSE,8.1,-,N/A,,Scattered Clouds,150,2013-04-26 09:35:00
4:55 AM,45.0,37.4,75,30.27,10.0,SSE,8.1,-,N/A,,Scattered Clouds,150,2013-04-26 09:55:00
5:15 AM,44.6,37.4,76,30.28,10.0,SSE,6.9,-,N/A,,Clear,160,2013-04-26 10:15:00
5:35 AM,44.4,37.4,76,30.26,10.0,SSE,6.9,-,N/A,,Clear,150,2013-04-26 10:35:00
5:55 AM,45.3,37.6,74,30.27,10.0,SSE,10.4,-,N/A,,Clear,160,2013-04-26 10:55:00
6:15 AM,46.4,37.8,72,30.27,10.0,SSE,10.4,-,N/A,,Clear,160,2013-04-26 11:15:00
6:55 AM,47.7,38.7,71,30.28,10.0,SSE,12.7,-,N/A,,Clear,160,2013-04-26 11:55:00
7:15 AM,48.6,39.2,70,30.28,10.0,SSE,13.8,-,N/A,,Clear,160,2013-04-26 12:15:00
7:35 AM,49.3,39.6,69,30.28,10.0,SSE,15.0,-,N/A,,Clear,160,2013-04-26 12:35:00
7:55 AM,50.0,40.1,69,30.28,10.0,SSE,11.5,-,N/A,,Clear,160,2013-04-26 12:55:00
8:15 AM,50.7,41.0,69,30.28,10.0,SSE,12.7,-,N/A,,Clear,160,2013-04-26 13:15:00
8:35 AM,51.6,41.2,68,30.30,10.0,South,12.7,-,N/A,,Clear,170,2013-04-26 13:35:00
8:55 AM,52.7,41.7,66,30.30,10.0,South,11.5,-,N/A,,Clear,180,2013-04-26 13:55:00
9:15 AM,53.6,42.4,66,30.30,10.0,South,12.7,-,N/A,,Scattered Clouds,170,2013-04-26 14:15:00
9:35 AM,54.9,43.3,65,30.31,10.0,South,12.7,-,N/A,,Scattered Clouds,170,2013-04-26 14:35:00
9:55 AM,57.0,43.9,61,30.31,10.0,SSW,11.5,-,N/A,,Scattered Clouds,200,2013-04-26 14:55:00
10:15 AM,58.6,43.3,57,30.32,10.0,SSW,15.0,20.7,N/A,,Mostly Cloudy,200,2013-04-26 15:15:00
10:35 AM,59.4,43.7,56,30.32,10.0,SSW,16.1,21.9,N/A,,Overcast,210,2013-04-26 15:35:00
10:55 AM,60.8,44.4,55,30.32,10.0,SSW,16.1,23.0,N/A,,Scattered Clouds,210,2013-04-26 15:55:00
11:15 AM,63.5,46.6,54,30.33,10.0,SW,23.0,28.8,N/A,,Scattered Clouds,220,2013-04-26 16:15:00
11:35 AM,63.0,45.5,53,30.33,10.0,SW,24.2,29.9,N/A,,Scattered Clouds,230,2013-04-26 16:35:00
11:55 AM,61.7,45.0,54,30.33,10.0,SW,18.4,31.1,N/A,,Overcast,220,2013-04-26 16:55:00
12:15 PM,61.7,44.6,53,30.32,10.0,SW,13.8,23.0,N/A,,Overcast,230,2013-04-26 17:15:00
12:35 PM,62.4,43.0,49,30.31,10.0,SSW,17.3,27.6,N/A,,Overcast,200,2013-04-26 17:35:00
12:55 PM,62.8,43.5,49,30.31,10.0,SW,16.1,25.3,N/A,,Overcast,220,2013-04-26 17:55:00
1:15 PM,62.8,43.9,50,30.30,10.0,SSW,17.3,-,N/A,,Overcast,200,2013-04-26 18:15:00
1:35 PM,62.2,45.3,54,30.30,10.0,SSW,18.4,23.0,N/A,,Overcast,210,2013-04-26 18:35:00
1:55 PM,63.7,44.4,50,30.31,10.0,SSW,19.6,25.3,N/A,,Overcast,200,2013-04-26 18:55:00
2:15 PM,63.7,44.8,50,30.30,10.0,SSW,18.4,24.2,N/A,,Overcast,200,2013-04-26 19:15:00
2:35 PM,63.3,45.0,51,30.30,10.0,SSW,17.3,20.7,N/A,,Overcast,210,2013-04-26 19:35:00
2:55 PM,63.7,45.1,51,30.29,10.0,SSW,17.3,-,N/A,,Overcast,200,2013-04-26 19:55:00
3:15 PM,64.6,44.8,49,30.28,10.0,SSW,19.6,25.3,N/A,,Scattered Clouds,200,2013-04-26 20:15:00
3:35 PM,65.3,44.6,47,30.27,10.0,South,20.7,26.5,N/A,,Scattered Clouds,190,2013-04-26 20:35:00
3:55 PM,65.7,45.1,47,30.26,10.0,SSW,18.4,24.2,N/A,,Scattered Clouds,200,2013-04-26 20:55:00
4:15 PM,64.6,45.3,50,30.25,10.0,South,17.3,-,N/A,,Mostly Cloudy,190,2013-04-26 21:15:00
4:35 PM,64.4,44.2,48,30.24,10.0,South,15.0,21.9,N/A,,Scattered Clouds,190,2013-04-26 21:35:00
4:55 PM,64.4,44.6,49,30.25,10.0,SSW,15.0,-,N/A,,Scattered Clouds,200,2013-04-26 21:55:00
5:15 PM,64.0,44.6,49,30.25,10.0,South,17.3,23.0,N/A,,Mostly Cloudy,180,2013-04-26 22:15:00
5:35 PM,64.4,45.3,50,30.26,10.0,South,15.0,-,N/A,,Mostly Cloudy,180,2013-04-26 22:35:00
5:55 PM,63.3,44.6,50,30.27,10.0,South,13.8,-,N/A,,Scattered Clouds,180,2013-04-26 22:55:00
6:15 PM,63.5,44.8,51,30.28,10.0,SSW,13.8,18.4,N/A,,Scattered Clouds,200,2013-04-26 23:15:00
6:35 PM,62.4,44.8,52,30.27,10.0,South,15.0,-,N/A,,Scattered Clouds,180,2013-04-26 23:35:00
6:55 PM,61.3,45.5,56,30.28,10.0,South,12.7,17.3,N/A,,Mostly Cloudy,180,2013-04-26 23:55:00
7:15 PM,60.8,45.9,58,30.27,10.0,South,10.4,-,N/A,,Overcast,180,2013-04-27 00:15:00
7:35 PM,59.9,46.0,60,30.27,10.0,South,11.5,-,N/A,,Scattered Clouds,180,2013-04-27 00:35:00
7:55 PM,58.6,46.2,63,30.28,10.0,South,8.1,-,N/A,,Clear,190,2013-04-27 00:55:00
8:15 PM,57.6,46.4,66,30.28,10.0,South,5.8,-,N/A,,Mostly Cloudy,180,2013-04-27 01:15:00
8:35 PM,57.2,46.6,68,30.28,10.0,South,5.8,-,N/A,,Mostly Cloudy,180,2013-04-27 01:35:00
8:55 PM,56.1,46.6,70,30.28,10.0,South,6.9,-,N/A,,Mostly Cloudy,190,2013-04-27 01:55:00
9:15 PM,55.2,46.8,73,30.29,10.0,South,6.9,-,N/A,,Scattered Clouds,180,2013-04-27 02:15:00
9:35 PM,54.9,46.6,74,30.30,10.0,South,5.8,-,N/A,,Scattered Clouds,180,2013-04-27 02:35:00
9:55 PM,54.3,46.4,75,30.30,10.0,SSE,5.8,-,N/A,,Scattered Clouds,150,2013-04-27 02:55:00
10:15 PM,54.0,47.1,78,30.31,10.0,South,6.9,-,N/A,,Clear,170,2013-04-27 03:15:00
10:35 PM,54.5,47.3,77,30.30,10.0,South,9.2,-,N/A,,Clear,170,2013-04-27 03:35:00
10:55 PM,54.1,47.3,78,30.30,10.0,South,9.2,-,N/A,,Clear,170,2013-04-27 03:55:00
11:15 PM,53.6,47.1,79,30.30,10.0,South,8.1,-,N/A,,Clear,170,2013-04-27 04:15:00
11:35 PM,52.9,46.8,80,30.30,10.0,South,6.9,-,N/A,,Clear,170,2013-04-27 04:35:00
11:55 PM,52.9,46.9,80,30.30,10.0,South,5.8,-,N/A,,Clear,190,2013-04-27 04:55:00